Regional Weather Roundup
Issued by NWS Grand Forks, ND

Home | Current Version | Previous Version | Graphics & Text | Print | Product List | Glossary On
Versions: 1 2 3 4 5 6 7 8 9 10 11 12 13 14 15 16 17 18 19 20 21 22 23 24 25 26 27 28 29 30 31 32 33 34 35 36 37 38 39 40 41 42 43 44 45 46 47 48 49 50
000
ASUS43 KFGF 241210
RWRFGF
PRAIRIE TO PINES  WEATHER ROUNDUP
NATIONAL WEATHER SERVICE EASTERN NORTH DAKOTA/GRAND FORKS ND
700 AM CDT SUN SEP 24 2017

 **SATELLITE DATA USED TO AUGMENT SKY COVER AT AUTOMATED STATIONS**
 *****  WEATHER ACROSS EASTERN NORTH DAKOTA  *****

CITY           SKY/WX    TMP DP  RH WIND       PRES   REMARKS
GRAND FORKS    RAIN      52  52 100 N16       29.90S
6HR MIN TEMP:  52; 6HR MAX TEMP:  54; 6HR PCP:  0.38;

GRAND FRKS AFB RAIN      50  50 100 N14       29.93S
DEVILS LAKE    LGT RAIN  47  46  97 N14       29.98R
6HR MIN TEMP:  47; 6HR MAX TEMP:  49; 6HR PCP:  0.34;

FARGO          CLOUDY    56  56 100 NW8       29.86S
WAHPETON ARPT  CLOUDY    57  55  94 CALM      29.85F
$$

 ***** WEATHER ACROSS CENTRAL AND WESTERN NORTH DAKOTA  *****

CITY           SKY/WX    TMP DP  RH WIND       PRES   REMARKS
BISMARCK       LGT RAIN  49  48  97 N9        29.97F
6HR MIN TEMP:  49; 6HR MAX TEMP:  49; 6HR PCP:  0.30;

MINOT          RAIN      47  46  97 N13       30.03F
6HR MIN TEMP:  47; 6HR MAX TEMP:  47; 6HR PCP:  0.19;

JAMESTOWN      RAIN      49  48  97 N13       29.90F
6HR MIN TEMP:  49; 6HR MAX TEMP:  51; 6HR PCP:  0.38;

MINOT AFB      RAIN      46  46  97 N12       30.04S
GARRISON         N/A     45  45 100 N12       30.01F
WILLISTON      LGT RAIN  44  42  93 N10       30.10F
6HR MIN TEMP:  44; 6HR MAX TEMP:  46; 6HR PCP:  0.10;

DICKINSON      LGT RAIN  43  42  97 N13       30.02F FOG
6HR MIN TEMP:  43; 6HR MAX TEMP:  45; 6HR PCP:  0.54;

HETTINGER      LGT RAIN  44  42  93 N13       30.02F
6HR MIN TEMP:  44; 6HR MAX TEMP:  45; 6HR PCP: TRACE;

$$

 *****  OTHER AIRPORT OBSERVATIONS IN OUR AREA  *****

CITY           SKY/WX    TMP DP  RH WIND       PRES   REMARKS
WALHALLA       LGT RAIN N/A N/A N/A N15       29.96F
GRAFTON AIRPOR NOT AVBL
VALLEY CITY AR NOT AVBL
CANDO          DRIZZLE   46  46 100 N13G18    30.01S
CAVALIER APRT  LGT RAIN  50  50 100 N12G20    29.94F
GWINNER        CLOUDY    55  55 100 N6        29.85F
SHEYENNE NWR     N/A     55  55 100 N7        29.95S
ROLLA          LGT RAIN  46  46 100 N12       30.02R
 ***** THE ABOVE OBSERVATIONS ARE NON NWS ARE NOT QUALITY
       CONTROLLED AND MAY MIS-REPORT RAIN FOR SNOW...
$$

  *****  WEATHER ACROSS NORTHERN MINNESOTA  *****

CITY           SKY/WX    TMP DP  RH WIND       PRES   REMARKS
FLAG ISLAND      N/A     55 N/A N/A NE7       29.91F
WARROAD        RAIN      55  52  88 NE8       29.91F
ROSEAU         LGT RAIN  54  48  82 N9        29.90F
HALLOCK        LGT RAIN  52  52 100 N15       29.92F
THF RVR FALLS  LGT RAIN  55  54  96 N5        29.89S
6HR MIN TEMP:  54; 6HR MAX TEMP:  55; 6HR PCP:  0.24;

BAUDETTE       LGT RAIN  57  57 100 E7        29.90F
6HR MIN TEMP:  54; 6HR MAX TEMP:  57; 6HR PCP:  0.12;

WASKISH        CLOUDY    55  55 100 E7        29.88F FOG
CROOKSTON      RAIN      54  54 100 N8        29.90R
STEPHEN NDAWN    N/A     52  52 100 N13         N/A
GREENBUSH NDAW   N/A     52  52 100 N8          N/A
$$
  *****  WEATHER ACROSS CENTRAL AND WEST MINNESOTA  *****

CITY           SKY/WX    TMP DP  RH WIND       PRES   REMARKS
FOSSTON        RAIN      55  55 100 CALM      29.88S
BEMIDJI        CLOUDY    59  58  99 E8        29.86F
6HR MIN TEMP:  54; 6HR MAX TEMP:  59; 6HR PCP:  0.16;

PARK RAPIDS    CLOUDY    62  61  96 SE12      29.87S
6HR MIN TEMP:  58; 6HR MAX TEMP:  62; 6HR PCP:  0.15;

ELBOW LAKE     CLOUDY    62  62  99 SW5       29.88R
WADENA         CLOUDY    61  61 100 SE8       29.87S FOG
DETROIT LAKES  CLOUDY    61  61 100 SW6       29.88R
MOORHEAD       LGT RAIN  55  55 100 CALM      29.87S
FERGUS FALLS   CLOUDY    59  59 100 CALM      29.87F
MORRIS MN      NOT AVBL
STAPLES        FOG       61  61 100 SE7       29.88F VSB 3/4
$$
  *****  WEATHER ELSEWHERE ACROSS MINNESOTA  *****

CITY           SKY/WX    TMP DP  RH WIND       PRES   REMARKS
DULUTH         FOG       63  63 100 SE10      29.97R VSB 3/4
6HR MIN TEMP:  63; 6HR MAX TEMP:  65;

INTRNTL FALLS  CLOUDY    59  57  93 E5        29.92F
6HR MIN TEMP:  56; 6HR MAX TEMP:  59; 6HR PCP:  0.05;

ELY            MOCLDY    59  59 100 CALM      29.95F
CLOQUET        FOG       64  61  88 E6        29.96R VSB 1/4
WHEATON        CLOUDY    59  57  94 CALM      29.87F FOG
BRAINERD       CLOUDY    62  62 100 SE5       29.90F FOG
6HR MIN TEMP:  59; 6HR MAX TEMP:  62;

HIBBING        CLOUDY    59  59 100 E5        29.93F FOG
6HR MIN TEMP:  56; 6HR MAX TEMP:  59; 6HR PCP:  0.46;

ALEXANDRIA     FOG       62  61  96 SE9       29.89S VSB 1
6HR MIN TEMP:  60; 6HR MAX TEMP:  63; 6HR PCP:  0.35;

SAINT CLOUD    FAIR      63  63 100 SE7       29.91S
6HR MIN TEMP:  59; 6HR MAX TEMP:  64;

MINNEAPOLIS    FAIR      71  64  78 SE7       29.94S
6HR MIN TEMP:  70; 6HR MAX TEMP:  79;

$$

  *****  WEATHER ACROSS SOUTH DAKOTA  *****

CITY           SKY/WX    TMP DP  RH WIND       PRES   REMARKS
SIOUX FALLS    FAIR      70  65  84 S12       29.87R
6HR MIN TEMP:  59; 6HR MAX TEMP:  70;

BROOKINGS      MOCLDY    64  62  93 S10       29.87R
WATERTOWN      FAIR      60  60 100 SE6       29.85S
6HR MIN TEMP:  59; 6HR MAX TEMP:  63;

HURON          LGT RAIN  57  56  96 S6        29.85R
6HR MIN TEMP:  54; 6HR MAX TEMP:  57; 6HR PCP:  0.65;

SISSETON         N/A     60  60 100 SE7       29.83F
ABERDEEN       LGT RAIN  54  54 100 NE6       29.85R
6HR MIN TEMP:  53; 6HR MAX TEMP:  54; 6HR PCP:  0.38;

MITCHELL       FOG       57  57 100 CALM      29.85F VSB 1/2
PIERRE         LGT RAIN  51  50  96 N16       29.85F
6HR MIN TEMP:  51; 6HR MAX TEMP:  52;

MOBRIDGE       LGT RAIN  51  49  92 N14       29.88F FOG
RAPID CITY     CLOUDY    45  43  93 N15       30.01
$$

  *****  SOME WEATHER IN NEARBY STATES *****

CITY           SKY/WX    TMP DP  RH WIND       PRES   REMARKS
GLASGOW MT     CLOUDY    47  40  76 CALM      30.11F
6HR MIN TEMP:  45; 6HR MAX TEMP:  47;

GREAT FALLS MT FAIR      31  28  89 SW6       30.09S
6HR MIN TEMP:  31; 6HR MAX TEMP:  38;

CHEYENNE WY    LGT RAIN  42  40  92 NE8       29.98S FOG
6HR MIN TEMP:  42; 6HR MAX TEMP:  44; 6HR PCP: TRACE;

SCOTTSBLUFF NE CLOUDY    46  42  86 N6        29.99F
6HR MIN TEMP:  45; 6HR MAX TEMP:  47; 6HR PCP:  0.06;

OMAHA NE       FAIR      71  64  78 S9        29.92S
6HR MIN TEMP:  69; 6HR MAX TEMP:  76;

DES MOINES IA  FAIR      70  63  78 SE7       29.96S
6HR MIN TEMP:  70; 6HR MAX TEMP:  75;

DAVENPORT IA   FAIR      66  61  84 SE6       30.06S
6HR MIN TEMP:  63; 6HR MAX TEMP:  71;

CHICAGO IL     FAIR      71  64  78 S3        30.08R
6HR MIN TEMP:  70; 6HR MAX TEMP:  76;

EAU CLAIRE WI  FAIR      64  62  93 CALM      29.99S
6HR MIN TEMP:  64; 6HR MAX TEMP:  74;

LA CROSSE WI   FAIR      69  65  86 SE7       30.01S
6HR MIN TEMP:  68; 6HR MAX TEMP:  73;

$$

  *****  SOME NATIONAL WEATHER *****

CITY           SKY/WX    TMP DP  RH WIND       PRES   REMARKS
LA GUARDIA NY  FAIR      73  61  65 N3        30.07R
6HR MIN TEMP:  71; 6HR MAX TEMP:  73;

RALEIGH NC     PTSUNNY   66  63  90 N3        30.10R
6HR MIN TEMP:  63; 6HR MAX TEMP:  69;

ATLANTA GA     MOCLDY    70  64  81 NE8       30.08R
6HR MIN TEMP:  69; 6HR MAX TEMP:  74;

NEW ORLEANS LA FAIR      77  72  84 NE7       29.92R
6HR MIN TEMP:  73; 6HR MAX TEMP:  78;

OKLAHOMA CITY  MOCLDY    67  65  93 SE7       29.90S
6HR MIN TEMP:  67; 6HR MAX TEMP:  75;

ALBUQUERQUE NM FAIR      55  39  54 S5        29.95R
6HR MIN TEMP:  54; 6HR MAX TEMP:  61;

SALT LAKE CITY MOCLDY    48  44  86 NW9       29.89S
6HR MIN TEMP:  44; 6HR MAX TEMP:  48; 6HR PCP:  0.09;

LOS ANGELES CA FAIR      60  54  80 E3        29.84S
6HR MIN TEMP:  60; 6HR MAX TEMP:  65;

BOISE ID       FAIR


USA.gov is the U.S. government's official web portal to all federal, state and local government web resources and services.